Volver al catálogo

FENGYUN 1C DEB

ActivoPO
NORAD 30106·DEBRIS·🇨🇳 China

Lanzado May 10, 1999 desde Taiyuan Satellite Launch Center

Loading…

Próximos Pases (próximas 24 horas)

TLE

ActualizadoSource: Space-Track

Época: Sep 13, 2026, 19:48 UTC

1 30106U 99025RK  26256.82504007  .00103072  00000-0  45069-2 0  9991
2 30106  98.9113 209.8486 0026359  32.4283  23.9288 15.21318752 26619

Sigue FENGYUN 1C DEB en tiempo real con AllMySat

Download on the App Store